Location: Gro�sch�nbrunn
(49.5760°N, 11.8868°E)
Time: 09:00:15
(UTC+00:00)

N. Korean satellite - Pass Details

Date: 04 December 2020
Orbit: 453 x 502 km, 97.2° (Epoch: 16 January)

Event Time Altitude Azimuth Distance (km) Brightness Sun altitude
Rises 05:54:57 0° 359° (N) 2,571 10.0 -8.8°
Reaches altitude 10° 05:57:26 10° 342° (NNW) 1,693 8.9 -8.5°
Maximum altitude 06:00:03 19° 296° (WNW) 1,233 8.0 -8.1°
Drops below altitude 10° 06:02:41 10° 249° (WSW) 1,700 8.9 -7.7°
Sets 06:05:11 0° 232° (SW) 2,584 10.0 -7.3°
